Find Starlink 32801

NORAD ID: 63035 Int'l Des: 2025-034 Owner: SPXS Country: US Constellation: starlink operational
LEOCIRCULAR

当前视图

正在加载3D地球...

About Starlink 32801

Starlink 32801 (NORAD 63035) is a starlink constellation satellite (v2 mini) launched Feb 18, 2025 by SPXS of US. It operates in LEO, CIRCULAR orbit with a mass of 730.00 kg.

关于 Starlink 32801

正在加载描述...

即将过境

Passes for default location (London). Set your location on the main map for personalized predictions.

高度历史

Loading altitude history...

两行轨道根数

1 63035U 25034G 26193.98443264 .00050362 00000-0 14913-2 0 9998
2 63035 53.1582 34.4676 0000733 126.9785 233.1285 15.34408110 78280
Epoch: Jul 12, 2026 • Age: 27 hours

当前状态

高度 466.3 km
远地点 / 近地点 N/A
速度 7.64 km/s
星下点 42.16°N, 102.99°E
发射日期 Feb 18, 2025
运行时间 1.3 years
类型 internet

技术详情

分类 Payload
质量 730.00 kg
干质量 700.00 kg
总质量 730.00 kg
长度 0.30 m
直径 4.10 m
跨度 29.00 m
形状 Box + pan
制造商 SPXS
平台类型 Starlink V2M
阶段状态 In Orbit
所有者/国家 SPXS/US

Most Searched